Flag for U.S.A. Weather past 2 weeks in Rapid City, South Dakota, U.S.A.

Now
30 °F

Clear.


Feels Like: 26 °F
Forecast: 29 / 46 °F
Wind: 3 mph from West

Location: Ellsworth Air Force Base

Current Time: Dec 21, 2014 at 3:45:04 AM

Latest Report: Dec 21, 2014 at 2:58 AM


Visibility: 10 mi

Pressure: 29.70 "Hg

Humidity: 74%

Dew point: 23 °F

Location of Rapid CityLocation

Historic Weather in Rapid City — Graph

°F

Rapid City temperature yesterday

Maximum temperature yesterday: 51 °F (at 1:58 PM)
Minimum temperature yesterday: 24 °F (at 12:58 AM)
Average temperature yesterday: 37 °F

Past Weeks' High & Low Weather Summary

 TemperatureHumidityPressure
High67 °F (Dec 12, 12:58 PM)100% (Dec 17, 8:58 PM)30.41 "Hg (Dec 17, 8:58 PM)
Low18 °F (Dec 16, 11:58 PM)20% (Dec 11, 2:58 PM)29.68 "Hg (Dec 14, 12:58 AM)
Average35 °F69%30.07 "Hg
* Reported Dec 6 1:58 AM — Dec 21 1:58 AM, Rapid City, Weather by CustomWeather, © 2014

Note: Actual official high and low records may vary slightly from our data, if they occured in-between our weather recording intervals... More about our weather records

Advertising

Rapid City weather history for previous 24 hours

 ConditionsComfort  
Time TempWeatherWind HumidityBarometerVisibility
1:58 AM
Dec 21
24 °FClear.8 mph84%29.74 "Hg10 mi
12:58 AM30 °FClear.7 mph77%29.74 "Hg10 mi
11:58 PM
Dec 20
32 °FClear.No wind77%29.79 "Hg10 mi
10:58 PM34 °FPassing clouds.6 mph73%29.80 "Hg10 mi
9:58 PM33 °FPassing clouds.5 mph74%29.85 "Hg10 mi
8:58 PM35 °FPassing clouds.No wind70%29.88 "Hg10 mi
7:58 PM35 °FOvercast.2 mph70%29.92 "Hg10 mi
6:58 PM38 °FPassing clouds.No wind63%29.93 "Hg10 mi
5:58 PM40 °FClear.No wind58%29.94 "Hg10 mi
4:58 PM39 °FClear.No wind58%29.95 "Hg10 mi
3:58 PM45 °FClear.No wind47%29.94 "Hg10 mi
2:58 PM49 °FSunny.No wind38%29.95 "Hg10 mi
1:58 PM51 °FSunny.3 mph39%29.93 "Hg10 mi
12:58 PM49 °FPassing clouds.10 mph43%29.95 "Hg10 mi
11:58 AM46 °FPartly sunny.12 mph49%29.98 "Hg10 mi
10:58 AM47 °FBroken clouds.12 mph46%29.99 "Hg10 mi
9:58 AM42 °FPartly sunny.5 mph54%30.00 "Hg10 mi
8:58 AM36 °FOvercast.6 mph65%29.98 "Hg10 mi
7:58 AM33 °FOvercast.5 mph71%29.99 "Hg10 mi
6:58 AM34 °FMore clouds than sun.2 mph59%29.98 "Hg10 mi
5:58 AM32 °FOvercast.6 mph74%29.98 "Hg10 mi
4:58 AM32 °FOvercast.6 mph69%29.96 "Hg10 mi
3:58 AM29 °FOvercast.3 mph78%29.95 "Hg10 mi
Weather by CustomWeather, © 2014

See weather overviewHow to use our weather pages